User: anonymous   Login
Location: Unspecified
(0.0000°N, 0.0000°E)
Time: 09:47:55
(UTC+00:00)
Language:

TERCEL - Orbit

View from above orbital plane
View from above orbital plane
View from above satellite
View from above satellite

Ground track
Ground track

The orbit data is extracted from the following two-line orbital elements,

1 20547U 90028B   18267.59003848 +.00000262 +00000-0 +10640-4 0  9993
2 20547 094.1117 023.6776 0082245 327.1658 032.4490 15.24284233570454
Epoch (UTC): 24 September 2018 14:09:39
Eccentricity: 0.0082245
inclination: 94.1117°
perigee height: 436 km
apogee height: 549 km
right ascension of ascending node: 23.6776°
argument of perigee: 327.1658°
revolutions per day: 15.24284233
mean anomaly at epoch: 32.4490°
orbit number at epoch: 57045

The dashed part of the orbit path shows where the satellite is in the earth's shadow,  

DLR